Weather History for KTNB - April, 2014

Change the Weather History Date:

Sunday, April 13, 2014

  Actual Average (KGEV) Record (KGEV)
Temperature  
Mean Temperature 62 °F -  
Max Temperature 74 °F 65 °F 80 °F (1972)
Min Temperature 51 °F 39 °F 17 °F (1990)
Degree Days  
Heating Degree Days 2    
Growing Degree Days 12 (Base 50)    
Moisture  
Dew Point 45 °F    
Average Humidity 55    
Maximum Humidity 76    
Minimum Humidity 38    
Precipitation  
Precipitation 0.00 in - - ()
Sea Level Pressure  
Sea Level Pressure 30.17 in    
Wind  
Wind Speed 3 mph (South)    
Max Wind Speed 16 mph    
Max Gust Speed 24 mph    
Visibility 10 miles    
Events      
Averages and records for this station are not official NWS values.
T = Trace of Precipitation, MM = Missing Value Source: NWS Daily Summary

Daily Weather History Graph

Daily Weather History Graph

Search for Another Location

Airport or City:

Trip Planner

Search our weather history database for the weather conditions in past years. The results will help you decide how hot, cold, wet, or windy it might be!

Date:

Astronomy

Apr. 13, 2014 Rise Set
Actual Time 6:55 AM EDT 7:58 PM EDT
Civil Twilight 6:29 AM EDT 8:25 PM EDT
Nautical Twilight 5:58 AM EDT 8:56 PM EDT
Astronomical Twilight 5:25 AM EDT 9:29 PM EDT
Moon 6:37 PM EDT (4/13) 5:51 AM EDT (4/13)
Length of Visible Light 13h 55m
Length of Day
13h 02m
Waxing Gibbous, 97% of the Moon is Illuminated
Apr 13
Waxing Gibbous
Apr 15
Full
Apr 22
Last Quarter
Apr 29
New
May 6
First Quarter

Hourly Weather History & Observations

Time (EDT) Temp. Dew Point Humidity Pressure Visibility Wind Dir Wind Speed Gust Speed Precip Events Conditions
12:15 AM 52.3 °F 41.4 °F 66% 30.20 in 10.0 mi Calm Calm - N/A   Clear
12:35 AM 52.0 °F 41.5 °F 68% 30.20 in 10.0 mi Calm Calm - N/A   Clear
12:55 AM 52.5 °F 41.5 °F 66% 30.19 in 10.0 mi WNW 3.5 mph - N/A   Clear
1:15 AM 51.1 °F 41.4 °F 69% 30.19 in 10.0 mi Calm Calm - N/A   Clear
1:35 AM 52.7 °F 41.4 °F 65% 30.18 in 10.0 mi Calm Calm - N/A   Clear
1:55 AM 52.5 °F 41.4 °F 66% 30.18 in 10.0 mi Calm Calm - N/A   Clear
2:15 AM 52.2 °F 41.4 °F 67% 30.18 in 10.0 mi Calm Calm - N/A   Clear
2:35 AM 52.5 °F 41.7 °F 67% 30.17 in 10.0 mi Calm Calm - N/A   Clear
2:55 AM 53.6 °F 42.1 °F 65% 30.17 in 10.0 mi Calm Calm - N/A   Clear
3:15 AM 52.5 °F 41.9 °F 67% 30.16 in 10.0 mi Calm Calm - N/A   Clear
3:35 AM 54.0 °F 42.4 °F 65% 30.16 in 10.0 mi Calm Calm - N/A   Clear
3:55 AM 52.9 °F 42.3 °F 67% 30.16 in 10.0 mi Calm Calm - N/A   Clear
4:15 AM 52.3 °F 42.4 °F 69% 30.16 in 10.0 mi Calm Calm - N/A   Clear
4:35 AM 53.1 °F 42.8 °F 68% 30.16 in 10.0 mi NE 3.5 mph - N/A   Clear
4:55 AM 53.4 °F 43.3 °F 69% 30.16 in 10.0 mi ENE 4.6 mph - N/A   Clear
5:15 AM 53.2 °F 43.7 °F 70% 30.16 in 10.0 mi Calm Calm - N/A   Clear
5:35 AM 57.9 °F 43.9 °F 60% 30.16 in 10.0 mi South 4.6 mph - N/A   Clear
6:15 AM 52.3 °F 43.7 °F 72% 30.18 in 10.0 mi Calm Calm - N/A   Clear
6:35 AM 51.8 °F 43.5 °F 73% 30.18 in 10.0 mi Calm Calm - N/A   Clear
6:55 AM 52.7 °F 43.7 °F 71% 30.19 in 10.0 mi Calm Calm - N/A   Clear
7:15 AM 52.3 °F 44.4 °F 74% 30.19 in 10.0 mi East 3.5 mph - N/A   Clear
7:35 AM 51.3 °F 43.9 °F 76% 30.20 in 10.0 mi Calm Calm - N/A   Clear
7:55 AM 53.6 °F 45.0 °F 73% 30.20 in 10.0 mi Calm Calm - N/A   Clear
8:15 AM 55.4 °F 45.5 °F 69% 30.20 in 10.0 mi Calm Calm - N/A   Clear
8:35 AM 58.6 °F 46.2 °F 63% 30.20 in 10.0 mi Calm Calm - N/A   Clear
8:55 AM 61.9 °F 46.2 °F 56% 30.20 in 10.0 mi South 6.9 mph - N/A   Clear
9:15 AM 62.6 °F 46.2 °F 55% 30.20 in 10.0 mi SSW 6.9 mph - N/A   Clear
9:35 AM 63.5 °F 46.4 °F 54% 30.20 in 10.0 mi South 5.8 mph - N/A   Clear
9:55 AM 64.4 °F 46.0 °F 51% 30.21 in 10.0 mi SSW 5.8 mph - N/A   Clear
10:15 AM 64.4 °F 45.7 °F 51% 30.22 in 10.0 mi South 9.2 mph - N/A   Clear
10:55 AM 67.5 °F 46.6 °F 47% 30.22 in 10.0 mi Calm Calm - N/A   Clear
11:15 AM 68.0 °F 45.9 °F 45% 30.22 in 10.0 mi SSW 11.5 mph 16.1 mph N/A   Clear
11:35 AM 68.7 °F 46.2 °F 44% 30.21 in 10.0 mi SSW 10.4 mph 16.1 mph N/A   Clear
11:55 AM 68.4 °F 44.8 °F 43% 30.21 in 10.0 mi SSW 11.5 mph 17.3 mph N/A   Clear
12:15 PM 69.6 °F 45.3 °F 42% 30.20 in 10.0 mi SSE 9.2 mph - N/A   Clear
12:35 PM 69.8 °F 45.5 °F 42% 30.20 in 10.0 mi SSW 10.4 mph - N/A   Clear
12:55 PM 70.2 °F 47.3 °F 44% 30.20 in 10.0 mi SW 12.7 mph 18.4 mph N/A   Clear
1:15 PM 72.5 °F 48.9 °F 43% 30.19 in 10.0 mi South 10.4 mph 18.4 mph N/A   Clear
1:35 PM 71.1 °F 48.2 °F 44% 30.18 in 10.0 mi SSE 16.1 mph 23.0 mph N/A   Clear
1:55 PM 72.1 °F 46.4 °F 40% 30.18 in 10.0 mi SSE 8.1 mph 16.1 mph N/A   Clear
2:15 PM 73.2 °F 48.2 °F 41% 30.18 in 10.0 mi SE 10.4 mph 17.3 mph N/A   Clear
2:35 PM 72.3 °F 47.5 °F 41% 30.17 in 10.0 mi SSE 6.9 mph - N/A   Clear
2:55 PM 72.7 °F 47.3 °F 40% 30.16 in 10.0 mi SSE 8.1 mph 21.9 mph N/A   Clear
3:15 PM 73.4 °F 48.0 °F 41% 30.16 in 10.0 mi SE 9.2 mph 20.7 mph N/A   Clear
3:35 PM 74.5 °F 47.3 °F 38% 30.15 in 10.0 mi SE 6.9 mph 18.4 mph N/A   Clear
3:55 PM 73.0 °F 47.1 °F 40% 30.14 in 10.0 mi SE 8.1 mph 19.6 mph N/A   Clear
4:15 PM 73.4 °F 46.0 °F 38% 30.14 in 10.0 mi SSW 8.1 mph 18.4 mph N/A   Clear
4:35 PM 72.9 °F 46.0 °F 38% 30.14 in 10.0 mi South 11.5 mph 18.4 mph N/A   Clear
4:55 PM 71.6 °F 45.1 °F 39% 30.14 in 10.0 mi SW 11.5 mph 19.6 mph N/A   Clear
5:35 PM 72.3 °F 45.5 °F 38% 30.14 in 10.0 mi SW 4.6 mph 21.9 mph N/A   Clear
5:55 PM 70.2 °F 45.7 °F 41% 30.14 in 10.0 mi South 5.8 mph 24.2 mph N/A   Clear
6:15 PM 70.0 °F 45.9 °F 42% 30.14 in 10.0 mi SSW 9.2 mph 20.7 mph N/A   Clear
6:35 PM 69.1 °F 45.9 °F 43% 30.14 in 10.0 mi South 5.8 mph - N/A   Clear
6:55 PM 67.3 °F 46.4 °F 47% 30.13 in 10.0 mi SE 8.1 mph - N/A   Clear
7:15 PM 66.4 °F 46.6 °F 49% 30.14 in 10.0 mi SE 6.9 mph - N/A   Clear
7:35 PM 66.2 °F 46.6 °F 49% 30.14 in 10.0 mi SSE 5.8 mph - N/A   Clear
7:55 PM 64.6 °F 46.6 °F 52% 30.13 in 10.0 mi Calm Calm - N/A   Clear
8:15 PM 64.9 °F 46.4 °F 51% 30.12 in 10.0 mi Calm Calm - N/A   Clear
8:35 PM 63.1 °F 46.4 °F 54% 30.12 in 10.0 mi SSE 4.6 mph - N/A   Clear
8:55 PM 62.1 °F 46.8 °F 57% 30.12 in 10.0 mi Calm Calm - N/A   Clear
9:15 PM 63.3 °F 46.8 °F 55% 30.13 in 10.0 mi Calm Calm - N/A   Clear
9:35 PM 63.0 °F 46.9 °F 56% 30.13 in 10.0 mi SW 3.5 mph - N/A   Clear
9:55 PM 62.2 °F 47.1 °F 58% 30.13 in 10.0 mi NE 4.6 mph - N/A   Clear
10:15 PM 63.0 °F 47.1 °F 56% 30.12 in 10.0 mi SW 9.2 mph - N/A   Clear
10:35 PM 62.6 °F 47.5 °F 58% 30.12 in 10.0 mi SSE 5.8 mph - N/A   Clear
10:55 PM 61.9 °F 48.2 °F 61% 30.12 in 10.0 mi South 3.5 mph 17.3 mph N/A   Clear
11:15 PM 61.9 °F 48.7 °F 62% 30.12 in 10.0 mi South 9.2 mph - N/A   Clear
11:35 PM 61.9 °F 49.1 °F 63% 30.12 in 10.0 mi SSE 5.8 mph - N/A   Clear
11:55 PM 61.2 °F 49.5 °F 65% 30.12 in 10.0 mi SSE 5.8 mph - N/A   Scattered Clouds